{"data":{"norad_id":65657,"intl_designator":"2025-211F","name":"STARLINK-34540","alt_names":[],"object_type":"PAYLOAD","status":"ACTIVE","operator":null,"country":"US","launch_date":"2025-09-19","launch_site_code":"AFWTR","launch_vehicle":null,"mission":null,"orbit_class":"UNKNOWN","rcs_meters":null,"size_class":null,"mass_kg":null,"dimensions":null,"purposes":["comms"],"wikipedia_slug":null,"has_3d_model":false,"image_url":null,"decayed_at":null,"tle_current":{"epoch":"2026-09-20T20:20:18.737376Z","epoch_age_seconds":78534,"freshness":"FRESH","line1":"1 65657U 25211F   26263.84743909  .00009004  00000+0  28082-3 0  9998","line2":"2 65657  97.2824 304.0272 0000567 123.2109 236.9188 15.33452993 56571","mean_motion":15.33452993,"eccentricity":5.67e-5,"inclination_deg":97.2824,"raan_deg":304.0272,"arg_perigee_deg":123.2109,"mean_anomaly_deg":236.9188,"bstar":0.00028082,"rev_number":5657,"period_min":93.90571517832,"perigee_km":465.1313577195,"apogee_km":465.90742835447,"semimajor_km":6843.656393037,"source":"CELESTRAK","updated_at":"2026-09-21T09:00:35.680090Z"}}}